TimeMST,TemperatureF,Dew PointF,Humidity,Sea Level PressureIn,VisibilityMPH,Wind Direction,Wind SpeedMPH,Gust SpeedMPH,PrecipitationIn,Events,Conditions,WindDirDegrees,DateUTC
12:57 AM,12.0,7.0,80,30.01,10.0,Calm,Calm,-,N/A,,Clear,0,2012-12-30 07:57:00
1:57 AM,12.9,9.0,84,29.98,10.0,Calm,Calm,-,N/A,,Clear,0,2012-12-30 08:57:00
2:57 AM,12.0,8.1,84,29.98,10.0,Calm,Calm,-,N/A,,Clear,0,2012-12-30 09:57:00
3:57 AM,12.0,7.0,80,29.96,10.0,Calm,Calm,-,N/A,,Clear,0,2012-12-30 10:57:00
4:57 AM,12.9,-9999,N/A,29.96,10.0,Calm,Calm,-,N/A,,Clear,0,2012-12-30 11:57:00
5:57 AM,12.0,-9999,N/A,29.97,10.0,Calm,Calm,-,N/A,,Clear,0,2012-12-30 12:57:00
6:57 AM,10.9,-9999,N/A,30.00,10.0,Calm,Calm,-,N/A,,Clear,0,2012-12-30 13:57:00
7:57 AM,10.9,-9999,N/A,30.00,10.0,Calm,Calm,-,N/A,,Partly Cloudy,0,2012-12-30 14:57:00
8:57 AM,14.0,-9999,N/A,30.00,10.0,Calm,Calm,-,N/A,,Clear,0,2012-12-30 15:57:00
9:57 AM,19.9,-9999,N/A,29.97,10.0,Calm,Calm,-,N/A,,Clear,0,2012-12-30 16:57:00
10:57 AM,28.9,-9999,N/A,29.93,10.0,SSW,9.2,-,N/A,,Clear,210,2012-12-30 17:57:00
11:57 AM,30.0,-9999,N/A,29.90,10.0,SW,18.4,-,N/A,,Mostly Cloudy,220,2012-12-30 18:57:00
12:57 PM,30.0,-9999,N/A,29.88,10.0,SW,16.1,-,N/A,,Overcast,220,2012-12-30 19:57:00
1:57 PM,30.9,-9999,N/A,29.83,10.0,SSW,16.1,25.3,N/A,,Overcast,200,2012-12-30 20:57:00
2:57 PM,30.0,-9999,N/A,29.84,10.0,SW,15.0,-,N/A,,Mostly Cloudy,220,2012-12-30 21:57:00
3:57 PM,28.0,-9999,N/A,29.86,5.0,SW,13.8,-,0.00,Snow,Light Snow,220,2012-12-30 22:57:00
4:00 PM,26.6,-9999,N/A,29.79,1.8,SSW,13.8,-,0.00,Snow,Light Snow,210,2012-12-30 23:00:00
4:10 PM,26.6,-9999,N/A,29.79,1.5,South,9.2,-,0.00,Snow,Light Snow,190,2012-12-30 23:10:00
4:23 PM,26.6,-9999,N/A,29.78,2.5,South,5.8,-,0.00,Snow,Light Snow,190,2012-12-30 23:23:00
4:27 PM,26.6,-9999,N/A,29.78,3.0,SSW,4.6,-,0.00,Snow,Light Snow,200,2012-12-30 23:27:00
4:57 PM,26.1,-9999,N/A,29.85,10.0,SSW,4.6,-,0.00,,Overcast,210,2012-12-30 23:57:00
5:23 PM,26.6,-9999,N/A,29.77,5.0,SSW,3.5,-,0.00,Snow,Light Snow,210,2012-12-31 00:23:00
5:35 PM,26.6,-9999,N/A,29.77,4.0,SSW,5.8,-,0.00,Snow,Light Snow,210,2012-12-31 00:35:00
5:39 PM,26.6,-9999,N/A,29.77,2.5,SW,4.6,-,0.00,Snow,Light Snow,220,2012-12-31 00:39:00
5:48 PM,26.6,-9999,N/A,29.77,1.2,SSW,3.5,-,0.01,Snow,Light Snow,210,2012-12-31 00:48:00
5:57 PM,26.1,-9999,N/A,29.85,1.2,Calm,Calm,-,0.01,Snow,Light Snow,0,2012-12-31 00:57:00
6:57 PM,25.0,-9999,N/A,29.87,1.5,SSW,6.9,-,0.01,Snow,Light Snow,200,2012-12-31 01:57:00
7:27 PM,24.8,-9999,N/A,29.78,1.0,SSW,5.8,-,0.02,Snow,Light Snow,210,2012-12-31 02:27:00
7:36 PM,24.8,-9999,N/A,29.78,1.8,SW,5.8,-,0.02,Snow,Light Snow,220,2012-12-31 02:36:00
7:54 PM,24.8,-9999,N/A,29.79,1.0,SSW,6.9,-,0.03,Snow,Light Snow,210,2012-12-31 02:54:00
7:57 PM,25.0,-9999,N/A,29.88,1.0,SSW,6.9,-,0.03,Snow,Light Snow,210,2012-12-31 02:57:00
8:24 PM,24.8,-9999,N/A,29.79,0.8,SSW,9.2,-,0.01,Snow,Light Snow,210,2012-12-31 03:24:00
8:30 PM,24.8,-9999,N/A,29.79,1.0,SSW,6.9,-,0.01,Snow,Light Snow,210,2012-12-31 03:30:00
8:45 PM,24.8,-9999,N/A,29.79,2.5,SW,5.8,-,0.02,Snow,Light Snow,220,2012-12-31 03:45:00
8:54 PM,24.8,-9999,N/A,29.79,1.8,SSW,4.6,-,0.02,Snow,Light Snow,210,2012-12-31 03:54:00
8:57 PM,24.1,-9999,N/A,29.88,1.8,SSW,4.6,-,0.02,Snow,Light Snow,210,2012-12-31 03:57:00
9:23 PM,24.8,-9999,N/A,29.78,2.5,Calm,Calm,-,0.00,Snow,Light Snow,0,2012-12-31 04:23:00
9:30 PM,24.8,-9999,N/A,29.78,3.0,Calm,Calm,-,0.00,Snow,Light Snow,0,2012-12-31 04:30:00
9:52 PM,24.8,-9999,N/A,29.79,3.0,SSW,4.6,-,0.00,Snow,Light Snow,210,2012-12-31 04:52:00
9:57 PM,24.1,-9999,N/A,29.84,4.0,SSW,4.6,-,0.00,Snow,Light Snow,210,2012-12-31 04:57:00
10:04 PM,24.8,-9999,N/A,29.79,4.0,SSW,8.1,-,0.00,Snow,Light Snow,200,2012-12-31 05:04:00
10:19 PM,24.8,-9999,N/A,29.80,9.0,SSW,8.1,-,0.00,,Overcast,210,2012-12-31 05:19:00
10:36 PM,24.8,-9999,N/A,29.80,7.0,SSW,8.1,-,0.00,Snow,Light Snow,210,2012-12-31 05:36:00
10:57 PM,24.1,-9999,N/A,29.81,3.0,SW,8.1,-,0.01,Snow,Light Snow,220,2012-12-31 05:57:00
11:43 PM,24.8,-9999,N/A,29.80,4.0,SW,8.1,-,0.00,Snow,Light Snow,220,2012-12-31 06:43:00
11:48 PM,24.8,-9999,N/A,29.80,1.8,SW,6.9,-,0.00,Snow,Light Snow,230,2012-12-31 06:48:00
11:57 PM,24.1,-9999,N/A,29.81,1.2,WSW,3.5,-,0.01,Snow,Light Snow,240,2012-12-31 06:57:00